World > North America > United States > Michigan > Willow

Hourly Willow, MI Regional Weather

Feedback E-mail the Weather

Quick WX

Willow, MI Weather Maps

°F °C°F °C
Willow Weather Map
UTC Time: 8/9/2022, 23:57
Your Time:

Willow, MI Regional Weather

Expires:202208100000;;759163
ASUS43 KDTX 092310
RWRMI 
MICHIGAN HOURLY REGIONAL WEATHER ROUNDUP
NATIONAL WEATHER SERVICE DETROIT/PONTIAC MI
700 PM EDT TUE AUG 09 2022

NOTE: "FAIR" INDICATES FEW OR NO CLOUDS BELOW 12,000 FEET WITH NO
SIGNIFICANT WEATHER AND/OR OBSTRUCTION TO VISIBILITY.


MIZ047>049-052>055-059>063-066>070-074>076-081>083-100000-
SOUTHEAST LOWER MICHIGAN
  
CITY           SKY/WX    TMP DP  RH WIND       PRES   REMARKS
ADRIAN         CLOUDY    75  61  61 S7        30.07S                  
ALMA           MOSUNNY   75  55  49 CALM      30.07F                  
ANN ARBOR      MOSUNNY   77  58  51 E5        30.06R                  
BAD AXE        SUNNY     70  55  58 NE6       30.08F                  
CARO           SUNNY     75  56  52 N5        30.08S                  
DETROIT CITY   MOSUNNY   76  60  57 E10       30.06S                  
DETROIT        PTSUNNY   76  60  57 SE8       30.06R                  
FLINT          CLOUDY    73  59  61 NE7       30.08S                  
GROSSE ILE     CLOUDY    73  64  72 S6        30.06R                  
HILLSDALE      MOSUNNY   71  59  67 CALM      30.09S                  
HOWELL         PTSUNNY   72  59  64 NE3       30.08S                  

CITY           SKY/WX    TMP DP  RH WIND       PRES   REMARKS
JACKSON        CLOUDY    73  57  57 VRB3      30.08S                  
LAMBERTVILLE   PTSUNNY   74  64  72 CALM      30.07S                  
LANSING        MOSUNNY   72  58  61 VRB3      30.08S                  
LAPEER         MOSUNNY   74  52  45 CALM      30.08S                  
MASON          MOSUNNY   71  60  69 CALM      30.08S                  
MONROE         CLOUDY    73  61  68 S9G16     30.06R                  
MT. CLEMENS    PTSUNNY   73  63  72 E9        30.04S                  
PONTIAC        PTSUNNY   73  57  57 N7        30.07S                  
PORT HOPE        N/A     68  55  63 E6        30.08F                  
PORT HURON     SUNNY     70  54  56 NE7       30.08F                  
TRI CITIES     SUNNY     75  56  51 E7        30.08S                  
MIDLAND        MOSUNNY   78  57  47 NE3       30.07R                  
TROY           PTSUNNY   76  59  54 NE6       30.08S                  
SAGINAW HB     SUNNY     73  52  46 SE3       30.08S                  
$$

SKY/WX - Weather  TMP - Temperature  DP - Dew Point  RH - Humidity
WIND - Wind Direction/Speed PRES - Barometric Pressure VSB - Visibility
WCI - Wind Chill Index E13G22 Wind - East Wind 13 mph/Gusts of 22 mph

Trending Headlines

Willow Radar Loop



Willow Quick Facts


National Two Day Weather Forecast


E-mail the Willow Weather Forecast

Voice your opinion or tell us about page issues...